Flag Weather past 2 weeks in Makati, Philippines

Now
88 °F

Scattered clouds.


Feels Like: 100 °F
Forecast: 80 / 89 °F
Wind: 5 mph from North

Location: National Airport

Current Time: Nov 23, 2014 at 11:57:37 AM

Latest Report: Nov 23, 2014 at 11:00 AM


Visibility: N/A

Pressure: 29.89 "Hg

Humidity: 70%

Dew point: 77 °F

Location of MakatiLocation

Historic Weather in Makati — Graph

°F

Makati temperature yesterday

Maximum temperature yesterday: 91 °F (at 2:00 PM)
Minimum temperature yesterday: 79 °F (at 3:00 AM)
Average temperature yesterday: 84 °F

Past Weeks' High & Low Weather Summary

 TemperatureHumidityPressure
High91 °F (Nov 12, 2:00 PM)100% (Nov 9, 12:00 AM)29.95 "Hg (Nov 9, 12:00 AM)
Low75 °F (Nov 9, 12:00 AM)13% (Nov 15, 12:00 PM)29.74 "Hg (Nov 16, 3:00 PM)
Average83 °F76%29.86 "Hg
* Reported Nov 8 10:00 AM — Nov 23 10:00 AM, Makati, Weather by CustomWeather, © 2014

Note: Actual official high and low records may vary slightly from our data, if they occured in-between our weather recording intervals... More about our weather records

Advertising

Makati weather history for previous 24 hours

 ConditionsComfort  
Time TempWeatherWind HumidityBarometerVisibility
10:00 AM
Nov 23
88 °FScattered clouds.3 mph70%29.89 "HgN/A
9:00 AM88 °FScattered clouds.2 mph62%29.89 "HgN/A
8:00 AM84 °FPassing clouds.2 mph74%29.89 "HgN/A
7:00 AM82 °FPassing clouds.1 mph84%29.89 "HgN/A
6:00 AM79 °FPassing clouds.No wind89%29.86 "HgN/A
5:00 AM79 °FPassing clouds.2 mph89%29.83 "HgN/A
4:00 AM81 °FPassing clouds.3 mph89%29.83 "HgN/A
3:00 AM81 °FPassing clouds.3 mph89%29.83 "HgN/A
2:00 AM82 °FPassing clouds.10 mph79%29.83 "HgN/A
1:00 AM82 °FPassing clouds.7 mph79%29.86 "HgN/A
12:00 AM82 °FPassing clouds.5 mph79%29.86 "HgN/A
11:00 PM
Nov 22
82 °FPassing clouds.6 mph79%29.86 "HgN/A
10:00 PM82 °FPassing clouds.6 mph79%29.89 "HgN/A
9:00 PM84 °FPartly cloudy.6 mph74%29.86 "HgN/A
8:00 PM84 °FPassing clouds.3 mph79%29.86 "HgN/A
7:00 PM84 °FPassing clouds.5 mph74%29.83 "HgN/A
6:00 PM84 °FPartly cloudy.7 mph70%29.83 "HgN/A
5:00 PM88 °FPartly sunny.8 mph66%29.80 "HgN/A
4:00 PM90 °FScattered clouds.8 mph63%29.80 "HgN/A
3:00 PM91 °FScattered clouds.8 mph59%29.80 "HgN/A
2:00 PM91 °FScattered clouds.8 mph59%29.80 "HgN/A
1:00 PM90 °FScattered clouds.7 mph63%29.80 "HgN/A
12:00 PM90 °FScattered clouds.5 mph59%29.83 "HgN/A
11:00 AM88 °FScattered clouds.5 mph66%29.86 "HgN/A
Weather by CustomWeather, © 2014

See weather overviewHow to use our weather pages